Location: Observatoire
(46.1952°N, 5.3391°E)
Time: 22:48:26
(UTC+01:00)

Tiros 1 despin weight - Pass Details

Date: 17 February 2026
Orbit: 556 x 593 km, 48.2° (Epoch: 7 March)

Event Time Altitude Azimuth Distance (km) Brightness Sun altitude
Rises 18:03:59 0° 267° (W) 2,732 ? -0.3°
Reaches altitude 10° 18:06:15 10° 270° (W) 1,836 ? -0.7°
Maximum altitude 18:10:25 68° 354° (N) 600 ? -1.4°
Drops below altitude 10° 18:14:37 10° 78° (ENE) 1,839 ? -2.0°
Enters shadow 18:16:12 - 80° (E) 2,465 ? -2.3°
Sets 18:16:53 0° 81° (E) 2,738 - -2.4°
